Location: La Silve
(44.2414°N, 5.8889°E)
Time: 07:45:25
(UTC+00:00)

CENTAUR R/B - Pass Details

Date: 18 April 2021
Orbit: 742 x 1446 km, 63.4° (Epoch: 18 April)

Event Time Altitude Azimuth Distance (km) Brightness Sun altitude
Rises 18:41:21 0° 320° (NW) 4,206 7.0 -3.7°
Reaches altitude 10° 18:44:03 10° 318° (NW) 3,317 6.5 -4.1°
Maximum altitude 18:52:11 63° 240° (WSW) 1,547 3.8 -5.5°
Drops below altitude 10° 19:00:55 10° 162° (SSE) 3,552 5.0 -6.9°
Sets 19:03:55 0° 159° (SSE) 4,519 5.5 -7.4°
